TimeEDT,TemperatureF,Dew PointF,Humidity,Sea Level PressureIn,VisibilityMPH,Wind Direction,Wind SpeedMPH,Gust SpeedMPH,PrecipitationIn,Events,Conditions,WindDirDegrees,DateUTC
12:15 AM,36.0,22.8,59,29.90,10.0,West,12.7,-,N/A,,Clear,270,2013-03-23 04:15:00
12:35 AM,35.6,23.0,60,29.90,10.0,West,10.4,16.1,N/A,,Clear,270,2013-03-23 04:35:00
12:55 AM,35.2,23.0,61,29.90,10.0,West,10.4,-,N/A,,Clear,270,2013-03-23 04:55:00
1:15 AM,35.4,23.0,61,29.90,10.0,West,9.2,-,N/A,,Clear,270,2013-03-23 05:15:00
1:35 AM,35.6,22.6,59,29.90,10.0,West,8.1,-,N/A,,Clear,260,2013-03-23 05:35:00
1:55 AM,35.4,22.6,60,29.90,10.0,West,9.2,-,N/A,,Clear,260,2013-03-23 05:55:00
2:15 AM,34.9,22.5,61,29.90,10.0,West,9.2,-,N/A,,Clear,260,2013-03-23 06:15:00
2:35 AM,34.9,22.3,60,29.90,10.0,West,9.2,-,N/A,,Clear,260,2013-03-23 06:35:00
2:55 AM,34.9,22.1,60,29.90,10.0,West,10.4,-,N/A,,Clear,260,2013-03-23 06:55:00
3:15 AM,34.7,22.1,60,29.90,10.0,West,8.1,-,N/A,,Scattered Clouds,260,2013-03-23 07:15:00
3:35 AM,34.3,22.1,61,29.89,10.0,West,6.9,-,N/A,,Scattered Clouds,270,2013-03-23 07:35:00
3:55 AM,33.8,22.5,63,29.88,10.0,West,9.2,-,N/A,,Clear,270,2013-03-23 07:55:00
4:15 AM,33.8,22.1,62,29.88,10.0,West,6.9,-,N/A,,Clear,270,2013-03-23 08:15:00
4:35 AM,34.3,21.7,60,29.88,10.0,WSW,5.8,-,N/A,,Clear,240,2013-03-23 08:35:00
4:55 AM,33.8,21.2,60,29.88,10.0,WSW,5.8,-,N/A,,Clear,240,2013-03-23 08:55:00
5:15 AM,33.4,21.2,61,29.88,10.0,WSW,4.6,-,N/A,,Clear,250,2013-03-23 09:15:00
5:35 AM,33.8,21.7,61,29.88,10.0,West,6.9,-,N/A,,Clear,270,2013-03-23 09:35:00
5:55 AM,34.0,21.6,60,29.89,10.0,West,10.4,16.1,N/A,,Clear,260,2013-03-23 09:55:00
6:15 AM,33.4,21.6,62,29.90,10.0,West,10.4,-,N/A,,Clear,260,2013-03-23 10:15:00
6:35 AM,33.1,21.4,62,29.90,10.0,West,10.4,-,N/A,,Clear,270,2013-03-23 10:35:00
6:55 AM,33.4,20.7,59,29.90,10.0,West,12.7,-,N/A,,Clear,270,2013-03-23 10:55:00
7:15 AM,33.4,20.3,59,29.90,10.0,West,11.5,-,N/A,,Clear,270,2013-03-23 11:15:00
7:35 AM,34.0,20.3,57,29.90,10.0,West,11.5,-,N/A,,Clear,280,2013-03-23 11:35:00
7:55 AM,34.5,20.5,57,29.90,10.0,West,15.0,18.4,N/A,,Clear,280,2013-03-23 11:55:00
8:15 AM,35.2,20.5,55,29.90,10.0,West,15.0,21.9,N/A,,Clear,280,2013-03-23 12:15:00
8:35 AM,36.1,20.7,53,29.91,10.0,West,15.0,23.0,N/A,,Clear,280,2013-03-23 12:35:00
8:55 AM,37.0,20.8,52,29.91,10.0,WNW,12.7,19.6,N/A,,Clear,290,2013-03-23 12:55:00
9:15 AM,38.3,21.0,50,29.90,10.0,WNW,18.4,25.3,N/A,,Clear,290,2013-03-23 13:15:00
9:35 AM,38.7,21.0,49,29.90,10.0,WNW,18.4,24.2,N/A,,Clear,290,2013-03-23 13:35:00
9:55 AM,39.4,20.8,47,29.89,10.0,WNW,16.1,25.3,N/A,,Clear,290,2013-03-23 13:55:00
10:15 AM,40.1,21.0,47,29.89,10.0,WNW,16.1,25.3,N/A,,Clear,300,2013-03-23 14:15:00
10:35 AM,41.4,20.8,44,29.89,10.0,WNW,19.6,23.0,N/A,,Clear,290,2013-03-23 14:35:00
10:55 AM,42.3,21.6,44,29.89,10.0,WNW,17.3,-,N/A,,Clear,290,2013-03-23 14:55:00
11:15 AM,43.2,21.4,42,29.89,10.0,West,17.3,28.8,N/A,,Clear,270,2013-03-23 15:15:00
11:35 AM,44.6,21.2,39,29.88,10.0,West,18.4,26.5,N/A,,Clear,270,2013-03-23 15:35:00
11:55 AM,45.1,21.4,39,29.89,10.0,WNW,17.3,26.5,N/A,,Scattered Clouds,290,2013-03-23 15:55:00
12:15 PM,45.9,21.2,38,29.88,10.0,WNW,24.2,31.1,N/A,,Scattered Clouds,300,2013-03-23 16:15:00
12:35 PM,45.9,20.8,37,29.87,10.0,West,23.0,31.1,N/A,,Scattered Clouds,280,2013-03-23 16:35:00
12:55 PM,46.9,21.2,36,29.87,10.0,NW,17.3,35.7,N/A,,Mostly Cloudy,310,2013-03-23 16:55:00
1:15 PM,45.9,19.6,35,29.87,10.0,NW,18.4,27.6,N/A,,Scattered Clouds,310,2013-03-23 17:15:00
1:35 PM,-9999,-9999,N/A,29.87,10.0,WNW,20.7,31.1,N/A,,Scattered Clouds,300,2013-03-23 17:35:00
1:55 PM,46.8,20.1,35,29.86,10.0,WNW,20.7,29.9,N/A,,Scattered Clouds,300,2013-03-23 17:55:00
2:15 PM,-9999,-9999,N/A,29.85,10.0,WNW,24.2,29.9,N/A,,Clear,290,2013-03-23 18:15:00
2:35 PM,48.0,20.8,34,29.85,10.0,WNW,20.7,28.8,N/A,,Scattered Clouds,290,2013-03-23 18:35:00
2:55 PM,48.2,20.3,33,29.85,10.0,WNW,24.2,34.5,N/A,,Scattered Clouds,300,2013-03-23 18:55:00
3:15 PM,48.0,20.1,33,29.84,10.0,NW,20.7,27.6,N/A,,Clear,310,2013-03-23 19:15:00
3:35 PM,48.2,20.8,34,29.84,10.0,WNW,18.4,28.8,N/A,,Clear,300,2013-03-23 19:35:00
3:55 PM,47.5,19.8,33,29.84,10.0,NW,16.1,26.5,N/A,,Scattered Clouds,320,2013-03-23 19:55:00
4:15 PM,48.2,20.3,33,29.84,10.0,WNW,18.4,28.8,N/A,,Scattered Clouds,300,2013-03-23 20:15:00
4:35 PM,47.3,18.9,32,29.84,10.0,WNW,18.4,32.2,N/A,,Scattered Clouds,290,2013-03-23 20:35:00
5:15 PM,47.5,18.9,32,29.85,10.0,NNW,17.3,31.1,N/A,,Scattered Clouds,330,2013-03-23 21:15:00
5:35 PM,47.5,18.3,31,29.85,10.0,WNW,25.3,32.2,N/A,,Scattered Clouds,290,2013-03-23 21:35:00
5:55 PM,46.8,18.1,32,29.85,10.0,WNW,20.7,29.9,N/A,,Clear,300,2013-03-23 21:55:00
6:15 PM,46.0,17.4,32,29.85,10.0,WNW,20.7,28.8,N/A,,Clear,300,2013-03-23 22:15:00
6:35 PM,45.7,18.1,33,29.86,10.0,NW,13.8,23.0,N/A,,Clear,310,2013-03-23 22:35:00
6:55 PM,45.1,17.2,33,29.87,10.0,WNW,16.1,24.2,N/A,,Clear,290,2013-03-23 22:55:00
7:15 PM,44.2,17.2,34,29.88,10.0,NW,13.8,23.0,N/A,,Clear,310,2013-03-23 23:15:00
7:35 PM,43.7,17.4,35,29.88,10.0,WNW,9.2,19.6,N/A,,Clear,300,2013-03-23 23:35:00
7:55 PM,43.3,17.4,35,29.89,10.0,NW,10.4,-,N/A,,Clear,310,2013-03-23 23:55:00
8:15 PM,42.8,17.4,36,29.90,10.0,WNW,13.8,-,N/A,,Clear,300,2013-03-24 00:15:00
8:35 PM,42.8,17.1,36,29.91,10.0,WNW,15.0,21.9,N/A,,Clear,300,2013-03-24 00:35:00
8:55 PM,42.3,17.1,36,29.91,10.0,NW,9.2,-,N/A,,Clear,310,2013-03-24 00:55:00
9:15 PM,41.9,17.2,37,29.92,10.0,NW,10.4,-,N/A,,Clear,310,2013-03-24 01:15:00
9:35 PM,41.5,17.2,38,29.92,10.0,NW,13.8,21.9,N/A,,Clear,310,2013-03-24 01:35:00
9:55 PM,41.4,16.9,37,29.92,10.0,NW,16.1,21.9,N/A,,Clear,310,2013-03-24 01:55:00
10:15 PM,41.0,17.1,38,29.93,10.0,WNW,18.4,25.3,N/A,,Clear,300,2013-03-24 02:15:00
10:35 PM,40.5,17.4,39,29.93,10.0,WNW,9.2,20.7,N/A,,Clear,290,2013-03-24 02:35:00
10:55 PM,40.1,18.1,41,29.94,10.0,WNW,13.8,18.4,N/A,,Clear,300,2013-03-24 02:55:00
11:35 PM,39.2,18.1,43,29.95,10.0,NW,12.7,17.3,N/A,,Scattered Clouds,320,2013-03-24 03:35:00
11:55 PM,38.8,17.8,43,29.94,10.0,NW,9.2,17.3,N/A,,Clear,310,2013-03-24 03:55:00